Regional Weather Roundup
Issued by NWS

Home | Current Version | Previous Version | Text Only | Print | Product List | Glossary Off
Versions: 1 2 3 4 5 6 7 8 9 10 11 12 13 14 15 16 17 18 19 20 21 22 23 24 25 26 27 28 29 30 31 32 33 34 35 36 37 38 39 40 41 42 43 44 45 46 47 48 49 50

000
ASUS43 KIND 012159
RWRIN

WEATHER ROUNDUP FOR INDIANA
NATIONAL WEATHER SERVICE INDIANAPOLIS IN
600 PM EDT SAT AUG 01 2015

NOTE: "FAIR" INDICATES FEW OR NO CLOUDS BELOW 12,000 FEET WITH NO
SIGNIFICANT WEATHER AND/OR OBSTRUCTIONS TO VISIBILITY.

* - STATION DOES NOT REPORT WEATHER SUCH AS PRECIPITATION OR FOG.

+ - STATION NOT QUALITY CONTROLLED BY THE NATIONAL WEATHER SERVICE.
    USE DATA WITH CAUTION...ESPECIALLY DEWPOINT AND RELATIVE
    HUMIDITY OBSERVATIONS.

INZ001>003-010>013-019-020-012300-
NORTHWEST INDIANA

CITY           SKY/WX    TMP DP  RH WIND       PRES   REMARKS
GARY /AIRPORT/ PTSUNNY   86  57  37 W16G26    29.92F
KNOX *+        PTSUNNY   82  55  39 W12       29.93S
MONTICELLO +   MOSUNNY   83  61  46 SW10      29.95F
RENSSELAER +   SUNNY     82  59  44 W9        29.95F

$$

LMZ046-743>745-012300-
SOUTHERN LAKE MICHIGAN

STATION/POSITION TIME  TEMP    WIND        PRES    WAVE
                       AIR SEA DIR/SP/G            HT
                 (UTC) (F)     (DEG/KT/KT) (MB)    (FT)
BURNS HARBOR     2100   80     340/  2/  3 1013.5F
MICHIGAN CITY    2100   78      10/  3/  3   N/A
5NW MICH CITY    2100   79 76  110/  2/  4   N/A     1

$$

INZ004-005-014>016-021>024-012300-
NORTH CENTRAL INDIANA

CITY           SKY/WX    TMP DP  RH WIND       PRES   REMARKS
ELKHART        MOSUNNY   82  50  32 NW6       29.94F
GOSHEN         MOSUNNY   81  56  42 NW6       29.94F
SOUTH BEND     MOSUNNY   84  56  38 VRB3      29.94F
WARSAW +       SUNNY     81  52  36 W3        29.95S

$$

INZ006>009-017-018-025>027-012300-
NORTHEAST INDIANA

CITY           SKY/WX    TMP DP  RH WIND       PRES   REMARKS
ANGOLA *+      PTSUNNY   81  55  41 NW7       29.95S
FORT WAYNE     PTSUNNY   80  53  39 W12       29.96S

$$

INZ028-029-035-036-043>045-051>053-012300-
WEST CENTRAL INDIANA

CITY           SKY/WX    TMP DP  RH WIND       PRES   REMARKS
CRAWFORDSVL +  MOSUNNY   79  52  38 SW5         N/A
GREENCASTLE +  PTSUNNY   81  54  39 CALM      30.01S
LAFAYETTE      MOSUNNY   81  60  48 W6        29.97S
TERRE HAUTE    PTSUNNY   85  54  34 CALM      29.99S

$$

INZ030>032-037>040-046>048-054>057-064-065-012300-
CENTRAL INDIANA

CITY           SKY/WX    TMP DP  RH WIND       PRES   REMARKS
COLUMBUS       SUNNY     81  48  32 W6        29.99S
GREENWOOD *+   PTSUNNY   81  52  36 SW7       30.00S
INDIANAPOLIS   PTSUNNY   82  54  37 W9        29.98S
-EAGLE CREEK   PTSUNNY   82  55  39 NW8       29.98F
KOKOMO *+      PTSUNNY   82  55  39 W9        29.97S
MT COMFORT *+  MOSUNNY   82  39  21 NW3       29.99S
SHELBYVILLE    PTSUNNY   84  57  39 W5        29.98S

$$

INZ033-034-041-042-049-050-058-059-012300-
EAST CENTRAL INDIANA

CITY           SKY/WX    TMP DP  RH WIND       PRES   REMARKS
MUNCIE         MOSUNNY   79  56  45 W9        29.98S

$$

INZ060-061-067>069-081>083-085>088-012300-
SOUTHWEST INDIANA

CITY           SKY/WX    TMP DP  RH WIND       PRES   REMARKS
EVANSVILLE     MOSUNNY   87  58  37 NW7       29.99F
HUNTINGBURG *+ MOSUNNY   84  57  39 N5        29.99F

$$

INZ062-063-066-070>080-084-089>092-012300-
SOUTH CENTRAL AND SOUTHEAST INDIANA

CITY           SKY/WX    TMP DP  RH WIND       PRES   REMARKS
BLOOMINGTON    PTSUNNY   83  58  42 N3        30.01S
MADISON *+     PTSUNNY   82  54  36 CALM      30.01S
SEYMOUR +      PTSUNNY   84  57  39 NW8       29.99S

$$




USA.gov is the U.S. government's official web portal to all federal, state and local government web resources and services.